LKCS Weather Reports


time (UTC)temp
C
wind
direction
speed
KPH
gust
KPH
rain 1hr
cm
rain 24hr
cm
rain mn
cm
humidity
%
barometer
mb
20260502180239 21 100 9.7 0.0 0.00 0.00 0.00 24 1018.0
20260502170245 22 100 11.3 0.0 0.00 0.00 0.00 20 1019.0
20260502163305 23 80 11.3 0.0 0.00 0.00 0.00 16 1019.0
20260502160246 23 70 9.7 0.0 0.00 0.00 0.00 16 1019.0
20260502150306 23 0 4.8 0.0 0.00 0.00 0.00 16 1020.0
20260502130253 23 0 8.0 0.0 0.00 0.00 0.00 19 1021.0
20260502123304 22 0 4.8 0.0 0.00 0.00 0.00 20 1022.0
20260502120246 22 0 8.0 0.0 0.00 0.00 0.00 21 1022.0
20260502113238 22 20 4.8 0.0 0.00 0.00 0.00 23 1023.0
20260502110254 22 0 8.0 0.0 0.00 0.00 0.00 21 1023.0
20260502103238 21 60 9.7 0.0 0.00 0.00 0.00 28 1023.0
20260502100315 20 140 9.7 0.0 0.00 0.00 0.00 26 1024.0
20260502090315 18 0 8.0 0.0 0.00 0.00 0.00 37 1024.0
20260502070249 12 0 1.6 0.0 0.00 0.00 0.00 58 1025.0
20260502063305 10 0 3.2 0.0 0.00 0.00 0.00 66 1025.0
20260502060305 7 0 0.0 0.0 0.00 0.00 0.00 70 1025.0
20260502053231 6 180 3.2 0.0 0.00 0.00 0.00 81 1025.0
20260502050239 5 0 1.6 0.0 0.00 0.00 0.00 80 1025.0
20260502043305 2 0 3.2 0.0 0.00 0.00 0.00 86 1025.0
20260502040306 2 220 4.8 0.0 0.00 0.00 0.00 86 1025.0
20260502033305 2 210 3.2 0.0 0.00 0.00 0.00 86 1025.0
20260502030307 2 230 3.2 0.0 0.00 0.00 0.00 86 1025.0
20260502023230 3 200 8.0 0.0 0.00 0.00 0.00 80 1025.0
20260502020306 3 200 3.2 0.0 0.00 0.00 0.00 86 1026.0
20260502013305 5 210 3.2 0.0 0.00 0.00 0.00 80 1026.0
20260502010247 5 220 4.8 0.0 0.00 0.00 0.00 80 1026.0
20260502003304 5 240 4.8 0.0 0.00 0.00 0.00 80 1026.0
20260502000306 6 0 3.2 0.0 0.00 0.00 0.00 75 1026.0
20260501233231 7 210 4.8 0.0 0.00 0.00 0.00 70 1026.0
20260501230305 7 210 4.8 0.0 0.00 0.00 0.00 70 1026.0
20260501223305 7 210 4.8 0.0 0.00 0.00 0.00 70 1026.0
20260501220306 7 220 4.8 0.0 0.00 0.00 0.00 70 1026.0
20260501213231 7 220 4.8 0.0 0.00 0.00 0.00 70 1026.0
20260501210306 7 210 8.0 0.0 0.00 0.00 0.00 65 1026.0
20260501203305 8 220 8.0 0.0 0.00 0.00 0.00 66 1026.0
20260501200247 10 240 4.8 0.0 0.00 0.00 0.00 57 1026.0
20260501193231 10 250 8.0 0.0 0.00 0.00 0.00 61 1026.0
20260501190247 12 0 3.2 0.0 0.00 0.00 0.00 54 1026.0
20260501183305 13 0 3.2 0.0 0.00 0.00 0.00 47 1026.0